www.pogodaiklimat.ru

Погода и климат >> Архив погоды >> Россия >> Свердловская область >> Верхнее Дуброво


ПОГОДА в Верхнем Дуброво

  • Прогноз погоды в Верхнем Дуброво
  • Монитор погоды в Верхнем Дуброво

АРХИВ ПОГОДЫ в Верхнем Дуброво

Время (UTC), дата Ветер
(напр.,м/с)
 
Видим.   Явления Облачность Т
(С)
Тd
(С)
f
(%)
Тe
(С)
Тes
(С)
Комфортность P
(гПа)
Po
(гПа)
Тmin
(С)
Tmax
(С)
R
(мм)
R24
(мм)
S
(см)
09 13.04 З 1 10 км {ливн. осадки} 10/6 600 м
[Sc Ac As]
+4.5 -7.5 41 +4 +5 1019.2 984.0
12 13.04 ЮЗ 2 10 км {ливн. осадки} 10/8 600 м
[Sc Ac As]
+5.7 -5.8 43 +4 +4 1018.8 983.8
15 13.04 ЮЗ 1 10 км 10/10 600 м
[Sc]
+3.9 -3.4 59 +3 +3 1019.4 984.2 +13.4 0.0
18 13.04 СВ 1 8000 м слаб. ливневой дождь 10/10 300 м
[Cb cap]
+3.3 -4.6 56 +2 +2 1020.0 984.6
21 13.04 С 1 50 км {ливн. осадки} 10/10 600 м
[Sc]
+1.8 -3.3 69 0 0 1021.1 985.5
00 14.04 СВ 2 7000 м слаб. ливневой снег 10/8 300 м
[Cb cap Ac As]
-1.0 -8.7 56 -4 -4 1023.1 987.1
03 14.04 СВ 3 10 км {ливн. осадки} 10/0 2000 м
[Ac trans Cs]
-1.6 -14.9 35 -6 -4 1024.3 988.1
06 14.04 СВ 2 10 км {ливн. осадки} 8/0 2000 м
[Ac trans]
+0.7 -13.6 33 -2 +3 1025.1 989.2 -1.7
09 14.04 СВ 4 10 км 1/0 2000 м
[Ac trans]
+2.9 -13.7 28 -1 +6 1024.9 989.3
12 14.04 С 3 10 км 1/0 2000 м
[Ac trans]
+2.9 -16.1 23 0 +3 1024.6 989.0
15 14.04 СВ 1 10 км ясно 0.0 -17.3 26 -1 -1 1025.3 989.3 +3.5
18 14.04 СВ 1 10 км ясно -3.2 -19.1 28 -4 -4 1026.1 989.6
21 14.04 н/о н/о
00 15.04 штиль 0 50 км 1/0
[Ci fib]
-7.9 -13.7 63 -8 -8 1025.2 988.1
03 15.04 З 1 10 км ясно -4.1 -14.7 43 -6 -3 1024.0 987.5 -8.8
06 15.04 З 2 10 км ясно +0.6 -17.5 24 -2 +7 1021.6 985.8
09 15.04 З 2 10 км ясно +4.3 -18.7 17 +3 +13 опасность
простуды
1018.3 983.1
12 15.04 З 3 10 км ясно +6.4 -19.1 14 +5 +8 1015.1 980.3
15 15.04 З 1 10 км 9/0 2000 м
[Ac trans Ci fib]
+3.3 -16.8 21 +3 +3 1013.8 978.6 +6.6
18 15.04 З 2 50 км 8/0 2000 м
[Ac trans Ci fib]
+1.0 -14.5 30 -1 -1 1012.9 977.5
21 15.04 З 1 50 км 10/0 2000 м
[Ac trans]
+0.6 -0.9 90 -1 -1 1011.4 976.0
00 16.04 З 2 50 км 10/0 2000 м
[]
+0.9 -6.0 60 -2 -2 1009.7 974.4
03 16.04 З 3 5000 м слаб. ливневой снег {морось} 10/8 300 м
[Cb cap Ac trans]
+0.1 -2.3 84 -5 -4 1007.8 972.5 -0.1 0.0
06 16.04 З 3 7000 м слаб. ливневой снег 10/8 300 м
[Cb cap Ac trans]
+2.7 -2.7 68 -1 -0 1006.2 971.2
09 16.04 СЗ 3 8000 м слаб. крупа 10/9 300 м
[Cb cap Ac trans]
+2.5 -2.0 72 -1 -1 1005.6 970.7
12 16.04 СЗ 3 8000 м слаб. ливневой снег 10/8 300 м
[Cb cap Ac trans]
+0.9 -1.7 83 -4 -3 1005.9 970.7
15 16.04 СЗ 2 10 км {ливн. осадки} 3/0
[Ac trans]
-2.6 -5.1 83 -7 -7 1008.6 972.9 3
18 16.04 С 3 900 м ливневой снег 10/10 300 м
[Cb cap]
-4.4 -6.7 84 -10 -10 1011.8 975.7
21 16.04 С 3
{10}
14 км слаб. ливневой снег 10/10 300 м
[Cb cap]
-7.4 -10.7 77 -13 -13 1016.4 979.7
00 17.04 СЗ 2 50 км {ливн. осадки} ясно -10.6 -16.2 63 -15 -15 1019.4 982.2
03 17.04 СЗ 3 7000 м слаб. ливневой снег 8/8 300 м
[Cb cap]
-10.9 -16.8 62 -17 -16 1021.4 984.1 -1.1 3 6
06 17.04 СЗ 3 8000 м слаб. ливневой снег {метель} 8/8 300 м
[Cb cap]
-8.8 -17.0 51 -14 -13 1023.2 986.1
09 17.04 С 4
{10}
8000 м слаб. ливневой снег {метель} 10/10 300 м
[Cb cap]
-5.2 -16.0 42 -11 -11 1024.9 988.2
12 17.04 С 4
{12}
10 км позёмок {ливн. осадки} 3/3 600 м
[Cu med, cong]
-2.8 -20.6 24 -8 -6 1025.7 989.3
15 17.04 СЗ 2 10 км {метель} ясно -3.7 -21.1 25 -7 -7 1026.7 990.2 -2.5 0.0
18 17.04 З 1 50 км {метель} ясно -7.9 -19.1 40 -10 -10 1028.6 991.4
21 17.04 З 1 50 км 10/0
[]
-9.5 -17.5 52 -12 -12 1029.5 992.1
00 18.04 З 1 50 км 3/0
[Ci sp]
-10.2 -18.0 53 -12 -12 1030.2 992.6
03 18.04 З 2 10 км 10/0
[Ci]
-6.4 -17.8 40 -10 -8 1029.9 992.8 -1.0 5
06 18.04 СЗ 3 10 км 3/0
[Ci]
-0.7 -20.5 21 -4 +3 1028.9 992.7
09 18.04 З 3 10 км 1/0
[Ci sp]
+2.2 -17.1 22 -1 +8 1028.6 992.7
12 18.04 З 2 10 км ясно +3.8 -18.8 17 +2 +6 1027.4 991.8
15 18.04 штиль 0 10 км 5/0
[Ci sp]
+0.5 -16.3 27 +1 +1 1027.1 991.1 +4.2
18 18.04 З 1 50 км 3/0
[Ci sp]
-2.5 -18.3 29 -4 -4 1028.0 991.6
21 18.04 З 1 50 км ясно -3.9 -16.1 38 -5 -5 1027.6 991.0
00 19.04 З 2 50 км ясно -4.7 -15.9 41 -8 -8 1026.9 990.2
03 19.04 З 2 10 км ясно -1.9 -14.9 36 -5 -2 1025.9 989.6 -5.0 1
06 19.04 СЗ 2 10 км ясно +4.4 -17.4 19 +3 +12 опасность
простуды
1023.7 988.3
09 19.04 СЗ 3 10 км ясно +6.3 -13.3 23 +4 +13 опасность
простуды
1021.5 986.5
12 19.04 СЗ 2 10 км 5/5 600 м
[Cu med, cong]
+7.7 -11.1 25 +7 +9 1020.0 985.2
15 19.04 СЗ 2 10 км 3/3 600 м
[Cu hum]
+5.0 -10.0 33 +3 +3 1019.7 984.8 +8.5
18 19.04 С 2 50 км ясно +2.5 -9.8 40 0 0 1020.9 985.4
21 19.04 З 1 50 км ясно -2.1 -9.6 56 -4 -4 1021.6 985.5
00 20.04 ЮЗ 1 50 км 9/0 2000 м
[Ac trans]
-3.0 -8.8 64 -5 -5 1021.4 985.2
03 20.04 З 1 10 км 10/0
[Ac trans]
-0.6 -7.7 59 -2 -1 1021.3 985.4 -3.1
06 20.04 10 км н/о +3.7 -5.7 50 +2 +8 1021.1 985.7

 

Местоположение метеостанции Верхнее Дуброво (Свердловская область, Россия): широта 56.73 долгота 61.07 высота над уровнем моря 288 м.

В архиве по умолчанию представлена погода в Верхнем Дуброво за последнюю неделю. Архивные данные за месяц целиком и за предыдущие месяцы, начиная с января 2011 года, Вы можете получить, выбрав интересующий диапазон дат из раскрывающегося списка и нажав кнопку "Ввод!".


*Определитесь, кто Вы:
робот инопланетянин человек

Внимание! Время в таблицах - всемирное. Для получения местного времени необходимо прибавить поправку, которая равна 5 ч.

Смотрите также архив погоды в соседних городах и на ближайших метеорологических станциях:

Погода в Екатеринбурге (Свердловская область, Россия) (29 км)
Погода в Екатеринбурге (Бот.сад) (Свердловская область, Россия) (29 км)
Погода в Сысерти (Свердловская область, Россия) (30 км)
Погода в Каменск-Уральском (Свердловская область, Россия) (59 км)
Погода в Ревде (Свердловская область, Россия) (68 км)
Погода в Мариинске (Свердловская область, Россия) (74 км)
Погода в Верхнем Уфалее (Челябинская область, Россия) (86 км)
Погода в Артемовском (Свердловская область, Россия) (88 км)
Погода в Невьянске (Свердловская область, Россия) (99 км)
Погода в Камышлове (Свердловская область, Россия) (101 км)

Пояснения к столбцам:

Ветер - указаны скорость ветра в м/с - средняя за 10 мин, порывы в срок и между сроками (в фигурных скобках) и направление, откуда дует ветер: С - северный, СВ - северо-восточный, В - восточный, ЮВ - юго-восточный, Ю - южный, ЮЗ - юго-западный, З - западный, СЗ - северо-западный.
Видимость - горизонтальная дальность видимости в метрах или километрах. При видимости от 1 до 10 км при отсутствии осадков обычно наблюдается дымка, при ухудшении видимости до 1 км и менее - туман. В сухую погоду видимость может ухудшаться дымом, пылью или мглою.
Явления - указаны атмосферные явления, наблюдавшиеся в срок или в последний час перед сроком; фигурными скобками обозначены явления, наблюдавшиеся между сроками (за 1-3 часа до срока); квадратными скобками обозначены град или гололедные отложения с указанием их диаметра в мм.
Облачность - указаны через наклонную черту общая и нижняя облачность в баллах и высота нижней границы облаков в метрах; квадратными скобками обозначены формы облаков: Ci - перистые, Cs - перисто-слоистые, Cc - перисто-кучевые, Ac - высококучевые, As - высокослоистые, Sc - слоисто-кучевые, Ns - слоисто-дождевые, Cu - кучевые, Cb - кучево-дождевые. Подробнее классификацию облаков см. в Атласе облаков (PDF).
T - Температура воздуха - температура, измеренная на высоте 2 м над землей.
Td - Температура точки росы - температура, при понижении до которой содержащийся в воздухе водяной пар достигнет насыщения.
f - Относительная влажность воздуха - влажноcть воздуха, измеренная на высоте 2 м над землей.
Te - Эффективная температура - температура, которую ощущает одетый по сезону человек в тени. Характеристика душности погоды. При расчете учитывается влияние влажности воздуха и скорости ветра на теплоощущения человека.
Tes - Эффективная температура на солнце - температура, которую ощущает человек, с поправкой на солнечный нагрев. Характеристика знойности погоды. Зависит от высоты солнца над горизонтом, облачности и скорости ветра. Ночью, в пасмурную погоду, а также при ветре 12 м/с и более поправка равна нулю.
P - Атмосферное давление - приведенное к уровню моря атмосферное давление.
Po - Атмосферное давление - измеренное на уровне метеостанции атмосферное давление.
Tmin - Минимальная температура - минимум температуры воздуха на высоте 2 м над землей.
Tmax - Максимальная температура - максимум температуры воздуха на высоте 2 м над землей.
R - Количество осадков - Количество выпавших осадков за период времени, мм. При наведении курсора мыши на число - период времени, за который выпало указанное количество осадков.
R24 - Количество осадков - Количество выпавших осадков за 24 часа, мм.
S - Снежный покров - Высота снежного покрова, см. При наведении курсора мыши на число - состояние снежного покрова и степень покрытия местности в баллах.